{"data":{"norad_id":57604,"epoch":"2026-09-20T17:24:33.238944Z","epoch_age_seconds":108121,"freshness":"FRESH","line1":"1 57604U 23119C   26263.72538471  .00000516  00000+0  28287-4 0  9996","line2":"2 57604  43.0011  60.2037 0001496 267.1598  92.9082 15.27576248172916","mean_motion":15.27576248,"eccentricity":0.0001496,"inclination_deg":43.0011,"raan_deg":60.2037,"arg_perigee_deg":267.1598,"mean_anomaly_deg":92.9082,"bstar":2.8287e-5,"rev_number":17291,"period_min":94.266980249617,"perigee_km":482.03389577972,"apogee_km":484.08676602113,"semimajor_km":6861.1973309004,"source":"CELESTRAK","updated_at":"2026-09-21T09:00:33.640139Z"}}